Regional Weather Roundup
Issued by NWS

Home | Current Version | Previous Version | Text Only | Print | Product List | Glossary On
Versions: 1 2 3 4 5 6 7 8 9 10 11 12 13 14 15 16 17 18 19 20 21 22 23 24 25 26 27 28
000
ASUS45 KTFX 241110
RWRMT
MONTANA REGIONAL WEATHER ROUNDUP
NATIONAL WEATHER SERVICE GREAT FALLS MT
500 AM MDT TUE APR 24 2018

NOTE: "FAIR" INDICATES FEW OR NO CLOUDS BELOW 12000 FEET WITH NO
SIGNIFICANT WEATHER AND/OR OBSTRUCTIONS TO VISIBILITY.

MTZ001>007-043-241200-
WEST OF THE DIVIDE

CITY           SKY/WX    TMP DP  RH WIND       PRES   REMARKS
KALISPELL      FAIR      25  22  88 NW3       30.46R
MISSOULA       FAIR      29  22  75 W5        30.48R
BUTTE          FAIR      23  19  85 E3        30.46S
MULLAN PASS    FAIR      32  20  61 SE12G23   30.39F WCI  23
ANACONDA         N/A     25  19  80 S3        30.47S
DEER LODGE       N/A     25  21  86 CALM      30.49R
HAMILTON         N/A     28  23  80 MISG      30.47
PLAINS           N/A     29  22  75 CALM      30.44
RONAN            N/A     30  25  80 N3        30.47R
THOMPSON FALLS   N/A     27  23  84 CALM      30.47S
$$

MTZ008-052>055-241200-
SOUTHWEST MONTANA

CITY           SKY/WX    TMP DP  RH WIND       PRES   REMARKS
BOZEMAN        FAIR      29  27  92 SW6       30.49S WCI  23
DILLON         FAIR      27  26  96 NE3       30.45R
ENNIS          CLEAR     23  21  93 NE7       30.48R WCI  15
W YELLOWSTONE  FAIR      21  18  86 NE7       30.40S WCI  13
THREE FORKS      N/A     27  25  92 CALM      30.42S
TWIN BRIDGES     N/A     31  23  72 N5        30.38
$$

MTZ009-010-012-014-046-048-049-054-241200-
EAST SLOPES AND CENTRAL MONTANA

CITY           SKY/WX    TMP DP  RH WIND       PRES   REMARKS
CUT BANK       FAIR      30  20  66 W3        30.41S
GREAT FALLS    FAIR      32  26  78 S13       30.46S WCI  22
HELENA         FAIR      28  26  92 SW3       30.50R
CHOTEAU          N/A     32  21  64 SW6       30.46S WCI  26
WHITE SULPHUR    N/A     19  19 100 CALM      30.47R
$$

MTZ011-013-016-021-045-047-050-051-241200-
NORTH CENTRAL MONTANA

CITY           SKY/WX    TMP DP  RH WIND       PRES   REMARKS
HAVRE          FAIR      29  25  85 SW6       30.45S WCI  23
LEWISTOWN      FAIR      27  24  89 SE6       30.47S WCI  20
N BAR RANCH    FAIR      30  23  74 W7        30.48S WCI  23
$$

MTZ017>020-022>027-061-062-241200-
NORTHEAST MONTANA

CITY           SKY/WX    TMP DP  RH WIND       PRES   REMARKS
GLASGOW        FAIR      35  24  64 CALM      30.45R
GLENDIVE       FAIR      34  30  85 NW10      30.46S WCI  26
JORDAN           N/A     31  29  92 CALM      30.45S
MALTA          CLEAR     30  28  93 W3        30.45R
SIDNEY         FAIR      30  26  85 CALM      30.47S
WOLF POINT     FAIR      25  20  81 CALM      30.47S
PLENTYWOOD       N/A     32  25  74 CALM      30.46R
POPLAR           N/A     27  21  80 N3        30.48R
SCOBEY           N/A     23  13  65 MISG      30.40
$$

MTZ028>42-056>058-241200-
SOUTHCENTRAL AND SOUTHEAST MONTANA

CITY           SKY/WX    TMP DP  RH WIND       PRES   REMARKS
BAKER          FAIR      32  32 100 W7        30.46R WCI  26
BILLINGS       MOCLDY    34  34 100 SW10      30.48S WCI  26
LIVINGSTON     CLOUDY    31  29  92 W5        30.48S
MILES CITY     FAIR      34  33  96 SW6       30.48R WCI  29
BIG TIMBER     FOG       27  27 100 W7        30.50  VSB 0   WCI  19
EKALAKA          N/A     31  28  88 W3        30.38  VSB 1
FORSYTH          N/A     36  36 100 SW6       30.49S WCI  31
$$

REGIONAL REPORTS...DAKOTAS

CITY           SKY/WX    TMP DP  RH WIND       PRES   REMARKS
WILLISTON      FAIR      28  22  78 CALM      30.46R
MINOT          FAIR      31  24  75 NW10      30.40R WCI  22
DICKINSON      FAIR      35  27  72 N9        30.39R WCI  28
BEACH          FAIR      32  32 100 NW7       30.47S WCI  26
CROSBY         FAIR      27  25  93 SW8       30.45S WCI  18
TIOGA          FAIR      27  27 100 W6        30.45S WCI  20
WATFORD CITY   FAIR      27  25  93 SW3       30.45R
BISMARCK       CLOUDY    40  35  83 N6        30.37R
GRAND FORKS    CLOUDY    39  35  86 N12       30.33R WCI  32
FARGO          LGT RAIN  43  38  82 N21       30.29R
BUFFALO SD       N/A     34  32  92 NW10      30.35S WCI  26
RAPID CITY     LGT SNOW  34  32  92 NW29G38   30.38R FOG     WCI  20
$$

REGIONAL REPORTS...WYOMING/IDAHO/WASHINGTON

CITY           SKY/WX    TMP DP  RH WIND       PRES   REMARKS
GILLETTE       CLOUDY    31  30  96 NW12      30.45R WCI  22
SHERIDAN       CLOUDY    34  31  88 W5        30.50S
BUFFALO WY     CLOUDY    32  28  85 NW10      30.47R WCI  24
CODY           FAIR      28  23  81 W3        30.47S
YELLOWSTONE LA   N/A     19  13  77 VRB3      30.42S
IDAHO FALLS    FAIR      34  28  79 N10       30.36S WCI  26
SALMON         FAIR      30  26  85 CALM      30.46R
BOISE          FAIR      46  35  65 SE9       30.32R
SPOKANE        FAIR      43  29  57 E6        30.39S
$$

REGIONAL REPORTS...ALBERTA

CITY           SKY/WX    TMP DP  RH WIND       PRES   REMARKS
CALGARY        CLEAR     36  19  51 SW3       30.30S
CARDSTON         N/A     37  18  44 SW10        N/A  WCI  30
EDMONTON       CLEAR     37  23  56 SW9       30.21F WCI  31
FORT MCMURRAY  CLEAR     39  25  56 CALM      30.07F
HIGH LEVEL     CLEAR     37  25  60 SE7       29.91F
LETHBRIDGE     CLEAR     32  23  69 SW9       30.34F WCI  24
LLOYDMINSTER   CLEAR     34  28  80 S10       30.25F WCI  26
MEDICINE HAT   CLEAR     36  27  69 S12       30.37S WCI  27
MILK RIVER       N/A     32  25  74 SW3         N/A
PEACE RIVER    PTCLDY    37  25  60 SW9       30.11S WCI  31
PINCHER CREEK  CLEAR     37  21  52 W16       30.35F WCI  28
WATERTON GATE    N/A     43  16  33 SW20G30     N/A
$$

REGIONAL REPORTS...SASKATCHEWAN

CITY           SKY/WX    TMP DP  RH WIND       PRES   REMARKS
CORONACH         N/A     21  19  93 CALM        N/A
CYPRESS HILLS    N/A     36  18  48 SW5         N/A
ESTEVAN        CLEAR     27  21  80 W8        30.44R WCI  18
MOOSE JAW        N/A     34  23  64 SW12        N/A  WCI  25
PRINCE ALBERT  PTCLDY    28  25  86 NE3       30.34F
REGINA         CLEAR     28  21  74 S3        30.42R
ROCKGLEN         N/A     34  21  60 SW5         N/A
SASKATOON      CLEAR     30  25  80 S8        30.37S WCI  23
SWIFT CURRENT  CLEAR     32  23  69 S12       30.39S WCI  23
$$




USA.gov is the U.S. government's official web portal to all federal, state and local government web resources and services.